Location: Engelmannsreuth
(49.8125°N, 11.6497°E)
Time: 20:00:10
(UTC+00:00)

Cosmos 1455 - Pass Details

Date: 17 February 2020
Orbit: 500 x 522 km, 82.5° (Epoch: 30 March)

Event Time Altitude Azimuth Distance (km) Brightness Sun altitude
Exits shadow 04:06:29 17° 352° (N) 1,339 4.3 -22.3°
Drops below altitude 10° 04:07:32 10° 358° (N) 1,737 4.9 -22.1°
Sets 04:09:44 0° 5° (N) 2,623 5.9 -21.8°
